Simultaneous Nadir Overpasses (SNOs) Predictions

Prediction of SNOs between GOES-16 and NOAA-20 Satellite Orbit:

Table of predicted SNOs for the next 14.0 days since TLE Epoch: 2/5/2022
Index Date Time (GOES-16) GOES-16 Lat,Lon NOAA-20 Lat,Lon Distance(km) Time Diff (sec)
1 02/05/2022 18:26:05 0.06, -75.19 -0.05, -75.62 49.19 80
2 02/06/2022 18:10:01 0.06, -75.20 0.95, -71.09 467.04 80
3 02/08/2022 06:31:51 -0.06, -75.19 0.18, -76.37 134.24 80
4 02/09/2022 06:10:28 -0.06, -75.19 -0.83, -71.85 382.11 80
5 02/10/2022 18:32:26 0.05, -75.20 -0.37, -77.15 221.80 80
6 02/11/2022 18:16:23 0.05, -75.21 0.64, -72.63 294.89 80
7 02/13/2022 06:38:12 -0.05, -75.22 0.55, -77.90 305.40 80
8 02/14/2022 06:16:49 -0.04, -75.22 -0.46, -73.37 211.40 80
9 02/15/2022 18:38:47 0.04, -75.24 -0.72, -78.68 391.75 80
10 02/16/2022 18:22:43 0.03, -75.25 0.29, -74.15 125.62 80
11 02/18/2022 06:44:33 -0.03, -75.27 0.89, -79.42 473.22 80
